Data No,UTC Date,UTC Time,Latitude,Longitude,Course(deg),Temp(degC),Sal(psu)
501,2023/11/22,8:20,42-36.99N,141-37.11E,210,10.355,32.6206
502,2023/11/22,8:21,42-36.74N,141-36.94E,203,10.476,32.652
503,2023/11/22,8:22,42-36.48N,141-36.89E,184,10.829,32.8199
504,2023/11/22,8:23,42-36.19N,141-36.87E,180,11.012,32.8997
505,2023/11/22,8:24,42-35.89N,141-36.88E,178,10.994,33.0517
506,2023/11/22,8:25,42-35.60N,141-36.90E,178,10.958,33.0897
507,2023/11/22,8:26,42-35.29N,141-36.90E,179,10.809,33.0338
508,2023/11/22,8:27,42-34.98N,141-36.91E,178,10.722,32.9888
509,2023/11/22,8:28,42-34.68N,141-36.92E,179,10.828,33.0723
510,2023/11/22,8:29,42-34.38N,141-36.93E,179,10.885,33.1206
511,2023/11/22,8:30,42-34.07N,141-36.93E,179,10.928,33.1552
512,2023/11/22,8:31,42-33.76N,141-36.93E,179,10.979,33.1691
513,2023/11/22,8:32,42-33.45N,141-36.94E,179,10.999,33.1786
514,2023/11/22,8:33,42-33.13N,141-36.95E,179,11.039,33.1901
515,2023/11/22,8:34,42-32.82N,141-36.96E,178,11.067,33.1924
516,2023/11/22,8:35,42-32.50N,141-36.96E,179,11.086,33.2017
517,2023/11/22,8:36,42-32.17N,141-36.97E,179,11.08,33.2057
518,2023/11/22,8:37,42-31.85N,141-36.97E,179,11.063,33.1997
519,2023/11/22,8:38,42-31.53N,141-36.98E,179,11.053,33.1982
520,2023/11/22,8:39,42-31.21N,141-36.98E,179,11.025,33.1921
521,2023/11/22,8:40,42-30.88N,141-36.99E,179,11.009,33.1892
522,2023/11/22,8:41,42-30.55N,141-36.99E,180,11.01,33.1916
523,2023/11/22,8:42,42-30.22N,141-36.99E,179,11.017,33.1902
524,2023/11/22,8:43,42-29.89N,141-37.00E,179,11.25,33.1845
525,2023/11/22,8:44,42-29.54N,141-37.00E,179,11.678,33.1894
526,2023/11/22,8:45,42-29.22N,141-37.00E,179,11.833,33.2643
527,2023/11/22,8:46,42-28.87N,141-37.01E,179,11.938,33.3183
528,2023/11/22,8:47,42-28.54N,141-37.01E,179,12.017,33.3598
529,2023/11/22,8:48,42-28.20N,141-37.01E,179,12.172,33.3679
530,2023/11/22,8:49,42-27.85N,141-37.01E,179,12.323,33.3828
531,2023/11/22,8:50,42-27.52N,141-37.01E,179,12.42,33.3988
532,2023/11/22,8:51,42-27.18N,141-37.01E,179,12.479,33.3952
533,2023/11/22,8:52,42-26.84N,141-37.01E,179,12.504,33.3921
534,2023/11/22,8:53,42-26.50N,141-37.01E,180,12.527,33.3871
535,2023/11/22,8:54,42-26.14N,141-37.01E,180,12.531,33.3888
536,2023/11/22,8:55,42-25.80N,141-37.01E,180,12.485,33.3861
537,2023/11/22,8:56,42-25.45N,141-37.01E,180,12.376,33.3865
538,2023/11/22,8:57,42-25.11N,141-37.01E,179,12.389,33.3929
539,2023/11/22,8:58,42-24.76N,141-37.01E,180,12.344,33.403
540,2023/11/22,8:59,42-24.38N,141-37.01E,179,12.305,33.4153
541,2023/11/22,9:00,42-24.05N,141-37.01E,179,12.109,33.4283
542,2023/11/22,9:01,42-23.70N,141-37.05E,173,12.293,33.4072
543,2023/11/22,9:02,42-23.35N,141-37.11E,172,12.215,33.4265
544,2023/11/22,9:03,42-23.01N,141-37.18E,171,12.349,33.4325
545,2023/11/22,9:04,42-22.65N,141-37.25E,172,12.467,33.4349
546,2023/11/22,9:05,42-22.30N,141-37.31E,172,12.511,33.4347
547,2023/11/22,9:06,42-21.95N,141-37.37E,171,12.548,33.429
548,2023/11/22,9:07,42-21.60N,141-37.44E,172,12.511,33.4213
549,2023/11/22,9:08,42-21.23N,141-37.51E,172,12.509,33.4126
550,2023/11/22,9:09,42-20.88N,141-37.58E,171,12.52,33.4113
551,2023/11/22,9:10,42-20.53N,141-37.62E,176,12.512,33.4061
552,2023/11/22,9:11,42-20.17N,141-37.63E,178,12.516,33.4
553,2023/11/22,9:12,42-19.81N,141-37.65E,178,12.531,33.3923
554,2023/11/22,9:13,42-19.45N,141-37.65E,179,12.559,33.3867
555,2023/11/22,9:14,42-19.08N,141-37.66E,180,12.659,33.3843
556,2023/11/22,9:15,42-18.73N,141-37.65E,180,12.671,33.3699
557,2023/11/22,9:16,42-18.34N,141-37.65E,180,12.683,33.3437
558,2023/11/22,9:17,42-18.00N,141-37.64E,180,12.682,33.3363
559,2023/11/22,9:18,42-17.63N,141-37.64E,180,12.668,33.3365
560,2023/11/22,9:19,42-17.25N,141-37.64E,180,12.673,33.3316
561,2023/11/22,9:20,42-16.89N,141-37.63E,180,12.682,33.3292
562,2023/11/22,9:21,42-16.52N,141-37.63E,180,12.697,33.3319
563,2023/11/22,9:22,42-16.14N,141-37.62E,180,12.689,33.3336
564,2023/11/22,9:23,42-15.78N,141-37.62E,180,12.7,33.337
565,2023/11/22,9:24,42-15.40N,141-37.61E,181,12.668,33.3418
566,2023/11/22,9:25,42-15.03N,141-37.60E,180,12.642,33.3444
567,2023/11/22,9:26,42-14.65N,141-37.59E,180,12.642,33.3491
568,2023/11/22,9:27,42-14.29N,141-37.58E,180,12.648,33.3545
569,2023/11/22,9:28,42-13.91N,141-37.57E,181,12.63,33.3598
570,2023/11/22,9:29,42-13.53N,141-37.56E,181,12.587,33.3604
571,2023/11/22,9:30,42-13.14N,141-37.55E,181,12.566,33.3586
572,2023/11/22,9:31,42-12.76N,141-37.54E,181,12.576,33.3573
573,2023/11/22,9:32,42-12.40N,141-37.53E,181,12.583,33.3596
574,2023/11/22,9:33,42-12.00N,141-37.52E,181,12.617,33.3656
575,2023/11/22,9:34,42-11.63N,141-37.51E,180,12.646,33.372
576,2023/11/22,9:35,42-11.26N,141-37.51E,180,12.671,33.3746
577,2023/11/22,9:36,42-10.87N,141-37.50E,180,12.665,33.3781
578,2023/11/22,9:37,42-10.50N,141-37.49E,181,12.599,33.3687
579,2023/11/22,9:38,42-10.12N,141-37.48E,181,12.537,33.3552
580,2023/11/22,9:39,42-09.74N,141-37.47E,180,12.53,33.341
581,2023/11/22,9:40,42-09.38N,141-37.47E,180,12.635,33.3267
582,2023/11/22,9:41,42-09.00N,141-37.46E,180,12.691,33.3312
583,2023/11/22,9:42,42-08.62N,141-37.46E,180,12.692,33.3496
584,2023/11/22,9:43,42-08.26N,141-37.45E,180,12.672,33.3581
585,2023/11/22,9:44,42-07.88N,141-37.43E,182,12.666,33.3564
586,2023/11/22,9:45,42-07.52N,141-37.41E,182,12.653,33.3563
587,2023/11/22,9:46,42-07.14N,141-37.39E,182,12.634,33.3579
588,2023/11/22,9:47,42-06.76N,141-37.36E,182,12.652,33.3635
589,2023/11/22,9:48,42-06.40N,141-37.34E,182,12.652,33.3712
590,2023/11/22,9:49,42-06.03N,141-37.32E,182,12.616,33.3842
591,2023/11/22,9:50,42-05.65N,141-37.30E,182,12.608,33.3863
592,2023/11/22,9:51,42-05.28N,141-37.28E,181,12.622,33.392
593,2023/11/22,9:52,42-04.90N,141-37.27E,181,12.619,33.4084
594,2023/11/22,9:53,42-04.54N,141-37.25E,182,12.625,33.4361
595,2023/11/22,9:54,42-04.16N,141-37.23E,182,12.637,33.4503
596,2023/11/22,9:55,42-03.77N,141-37.21E,182,12.648,33.4585
597,2023/11/22,9:56,42-03.41N,141-37.19E,182,12.646,33.4728
598,2023/11/22,9:57,42-03.04N,141-37.17E,181,12.645,33.4797
599,2023/11/22,9:58,42-02.67N,141-37.16E,181,12.646,33.4909
600,2023/11/22,9:59,42-02.30N,141-37.14E,182,12.605,33.4973
601,2023/11/22,10:00,42-01.93N,141-37.12E,182,12.555,33.4805
602,2023/11/22,10:01,42-01.54N,141-37.10E,182,12.543,33.4668
603,2023/11/22,10:02,42-01.19N,141-37.08E,182,12.574,33.4456
604,2023/11/22,10:03,42-00.81N,141-37.06E,182,12.636,33.4346
605,2023/11/22,10:04,42-00.43N,141-37.03E,182,12.613,33.4221
606,2023/11/22,10:05,42-00.08N,141-37.01E,182,12.61,33.4057
607,2023/11/22,10:06,41-59.70N,141-36.99E,182,12.63,33.3953
608,2023/11/22,10:07,41-59.33N,141-36.97E,182,12.677,33.3865
609,2023/11/22,10:08,41-58.96N,141-36.95E,182,12.619,33.3824
610,2023/11/22,10:09,41-58.59N,141-36.93E,182,12.559,33.3789
611,2023/11/22,10:10,41-58.21N,141-36.91E,182,12.534,33.3735
612,2023/11/22,10:11,41-57.84N,141-36.88E,182,12.521,33.3765
613,2023/11/22,10:12,41-57.47N,141-36.87E,181,12.641,33.3772
614,2023/11/22,10:13,41-57.09N,141-36.85E,182,12.732,33.3893
615,2023/11/22,10:14,41-56.72N,141-36.82E,182,12.778,33.4003
616,2023/11/22,10:15,41-56.36N,141-36.80E,182,12.829,33.4083
617,2023/11/22,10:16,41-55.98N,141-36.78E,182,12.849,33.4027
618,2023/11/22,10:17,41-55.60N,141-36.76E,182,12.866,33.3981
619,2023/11/22,10:18,41-55.24N,141-36.74E,182,12.887,33.4034
620,2023/11/22,10:19,41-54.86N,141-36.72E,182,12.9,33.4105
621,2023/11/22,10:20,41-54.48N,141-36.70E,182,12.842,33.4261
622,2023/11/22,10:21,41-54.12N,141-36.68E,182,12.955,33.4413
623,2023/11/22,10:22,41-53.75N,141-36.65E,182,12.999,33.4596
624,2023/11/22,10:23,41-53.36N,141-36.63E,182,12.93,33.4924
625,2023/11/22,10:24,41-53.00N,141-36.62E,182,12.662,33.5022
626,2023/11/22,10:25,41-52.64N,141-36.60E,181,12.649,33.4658
627,2023/11/22,10:26,41-52.27N,141-36.59E,182,12.729,33.4341
628,2023/11/22,10:27,41-51.90N,141-36.57E,182,12.982,33.4271
629,2023/11/22,10:28,41-51.52N,141-36.55E,182,13.563,33.4494
630,2023/11/22,10:29,41-51.15N,141-36.53E,182,13.655,33.5599
631,2023/11/22,10:30,41-50.78N,141-36.51E,182,13.635,33.6164
632,2023/11/22,10:31,41-50.41N,141-36.50E,181,13.525,33.6445
633,2023/11/22,10:32,41-50.03N,141-36.49E,181,13.503,33.6295
634,2023/11/22,10:33,41-49.66N,141-36.47E,181,13.851,33.5853
635,2023/11/22,10:34,41-49.29N,141-36.46E,181,14,33.6015
636,2023/11/22,10:35,41-48.92N,141-36.44E,181,14.057,33.6504
637,2023/11/22,10:36,41-48.56N,141-36.43E,181,14.081,33.6646
638,2023/11/22,10:37,41-48.19N,141-36.41E,181,14.096,33.67
639,2023/11/22,10:38,41-47.82N,141-36.40E,181,14.117,33.6737
640,2023/11/22,10:39,41-47.46N,141-36.38E,181,14.074,33.6727
641,2023/11/22,10:40,41-47.10N,141-36.37E,181,14.028,33.6699
642,2023/11/22,10:41,41-46.73N,141-36.36E,181,13.992,33.6643
643,2023/11/22,10:42,41-46.36N,141-36.35E,181,13.948,33.6607
644,2023/11/22,10:43,41-46.00N,141-36.35E,179,14.072,33.6586
645,2023/11/22,10:44,41-45.62N,141-36.35E,179,14.778,33.6583
646,2023/11/22,10:45,41-45.27N,141-36.35E,180,14.903,33.6733
647,2023/11/22,10:46,41-44.89N,141-36.36E,179,14.864,33.676
648,2023/11/22,10:47,41-44.51N,141-36.36E,179,14.895,33.6767
649,2023/11/22,10:48,41-44.15N,141-36.36E,179,14.867,33.6689
650,2023/11/22,10:49,41-43.77N,141-36.37E,179,14.817,33.6624
651,2023/11/22,10:50,41-43.41N,141-36.38E,178,14.549,33.6616
652,2023/11/22,10:51,41-43.03N,141-36.40E,177,14.333,33.6621
653,2023/11/22,10:52,41-42.64N,141-36.42E,177,14.341,33.6632
654,2023/11/22,10:53,41-42.28N,141-36.44E,177,14.391,33.6632
655,2023/11/22,10:54,41-41.85N,141-36.47E,177,14.427,33.6599
656,2023/11/22,10:55,41-41.47N,141-36.49E,177,14.452,33.6568
657,2023/11/22,10:56,41-41.10N,141-36.52E,177,14.469,33.6508
658,2023/11/22,10:57,41-40.72N,141-36.53E,178,14.474,33.6507
659,2023/11/22,10:58,41-40.36N,141-36.53E,181,14.49,33.6473
660,2023/11/22,10:59,41-39.98N,141-36.51E,182,14.502,33.6489
661,2023/11/22,11:00,41-39.65N,141-36.50E,181,14.521,33.6458
662,2023/11/22,11:01,41-39.28N,141-36.49E,180,14.542,33.6377
663,2023/11/22,11:02,41-38.90N,141-36.49E,179,14.592,33.6342
664,2023/11/22,11:03,41-38.53N,141-36.50E,179,14.645,33.6312
665,2023/11/22,11:04,41-38.10N,141-36.50E,179,14.648,33.626
666,2023/11/22,11:05,41-37.72N,141-36.50E,179,14.648,33.621
667,2023/11/22,11:06,41-37.33N,141-36.51E,179,14.675,33.6148
668,2023/11/22,11:07,41-37.00N,141-36.51E,179,14.709,33.6135
669,2023/11/22,11:08,41-36.63N,141-36.52E,179,14.744,33.6084
670,2023/11/22,11:09,41-36.24N,141-36.52E,179,14.805,33.6164
671,2023/11/22,11:10,41-35.85N,141-36.53E,178,14.933,33.6127
672,2023/11/22,11:11,41-35.47N,141-36.55E,177,15.057,33.6042
673,2023/11/22,11:12,41-35.08N,141-36.57E,178,15.483,33.599
674,2023/11/22,11:13,41-34.70N,141-36.58E,179,15.578,33.5999
675,2023/11/22,11:14,41-34.31N,141-36.58E,179,15.444,33.5833
676,2023/11/22,11:15,41-33.93N,141-36.59E,179,15.423,33.5726
677,2023/11/22,11:16,41-33.48N,141-36.59E,180,15.486,33.5788
678,2023/11/22,11:17,41-33.15N,141-36.58E,180,15.429,33.5819
679,2023/11/22,11:18,41-32.77N,141-36.58E,180,15.441,33.5789
680,2023/11/22,11:19,41-32.36N,141-36.57E,180,15.468,33.5781
681,2023/11/22,11:20,41-32.00N,141-36.56E,181,15.408,33.5785
682,2023/11/22,11:21,41-31.61N,141-36.55E,181,15.407,33.5752
683,2023/11/22,11:22,41-31.21N,141-36.54E,181,15.405,33.5808
684,2023/11/22,11:23,41-30.84N,141-36.52E,181,15.387,33.5811
685,2023/11/22,11:24,41-30.45N,141-36.51E,182,15.488,33.5804
686,2023/11/22,11:25,41-30.06N,141-36.48E,182,15.458,33.5813
687,2023/11/22,11:26,41-29.67N,141-36.46E,182,15.474,33.5776
688,2023/11/22,11:27,41-29.28N,141-36.44E,182,15.538,33.5772
689,2023/11/22,11:28,41-28.88N,141-36.41E,182,15.548,33.5762
690,2023/11/22,11:29,41-28.51N,141-36.40E,181,15.503,33.5741
691,2023/11/22,11:30,41-28.12N,141-36.39E,181,15.498,33.5718
692,2023/11/22,11:31,41-27.74N,141-36.37E,182,15.427,33.5754
693,2023/11/22,11:32,41-27.33N,141-36.36E,181,15.403,33.5787
694,2023/11/22,11:33,41-26.99N,141-36.35E,180,15.447,33.5848
695,2023/11/22,11:34,41-26.61N,141-36.34E,181,15.469,33.5892
696,2023/11/22,11:35,41-26.24N,141-36.33E,182,15.468,33.578
697,2023/11/22,11:36,41-25.89N,141-36.31E,181,15.705,33.5733
698,2023/11/22,11:37,41-25.52N,141-36.30E,182,15.802,33.5813
699,2023/11/22,11:38,41-25.17N,141-36.28E,182,15.856,33.5847
700,2023/11/22,11:39,41-24.81N,141-36.26E,182,15.878,33.5872
701,2023/11/22,11:40,41-24.44N,141-36.24E,182,15.854,33.5898
702,2023/11/22,11:41,41-24.09N,141-36.22E,182,15.821,33.5916
703,2023/11/22,11:42,41-23.73N,141-36.20E,182,15.812,33.59
704,2023/11/22,11:43,41-23.37N,141-36.18E,182,15.855,33.5923
705,2023/11/22,11:44,41-23.01N,141-36.16E,182,15.886,33.6001
706,2023/11/22,11:45,41-22.65N,141-36.14E,182,15.876,33.6018
707,2023/11/22,11:46,41-22.30N,141-36.13E,181,15.895,33.6005
708,2023/11/22,11:47,41-21.93N,141-36.12E,181,15.929,33.6016
709,2023/11/22,11:48,41-21.59N,141-36.13E,177,15.938,33.6037
710,2023/11/22,11:49,41-21.24N,141-36.19E,169,15.945,33.603
711,2023/11/22,11:50,41-20.88N,141-36.31E,164,15.946,33.6048
712,2023/11/22,11:51,41-20.55N,141-36.44E,164,15.944,33.6055
713,2023/11/22,11:52,41-20.20N,141-36.57E,163,15.95,33.6038
714,2023/11/22,11:53,41-19.86N,141-36.70E,163,15.936,33.6028
715,2023/11/22,11:54,41-19.51N,141-36.84E,163,15.926,33.6026
716,2023/11/22,11:55,41-19.16N,141-36.98E,163,15.904,33.6013
717,2023/11/22,11:56,41-18.83N,141-37.11E,162,15.891,33.6015
718,2023/11/22,11:57,41-18.48N,141-37.25E,162,15.889,33.5996
719,2023/11/22,11:58,41-18.14N,141-37.39E,163,15.898,33.6036
720,2023/11/22,11:59,41-17.80N,141-37.53E,163,15.912,33.6033
721,2023/11/22,12:00,41-17.45N,141-37.67E,162,15.92,33.6019
722,2023/11/22,12:01,41-17.12N,141-37.81E,162,15.922,33.5948
723,2023/11/22,12:02,41-16.77N,141-37.96E,162,15.946,33.5917
724,2023/11/22,12:03,41-16.43N,141-38.10E,162,15.974,33.5884
725,2023/11/22,12:04,41-16.10N,141-38.24E,162,15.98,33.585
726,2023/11/22,12:05,41-15.75N,141-38.38E,163,15.989,33.585
727,2023/11/22,12:06,41-15.39N,141-38.49E,167,15.986,33.5751
728,2023/11/22,12:07,41-15.06N,141-38.59E,168,15.994,33.5713
729,2023/11/22,12:08,41-14.70N,141-38.69E,168,16.009,33.5695
730,2023/11/22,12:09,41-14.36N,141-38.78E,168,16.005,33.5671
731,2023/11/22,12:10,41-14.00N,141-38.88E,168,16.011,33.5669
732,2023/11/22,12:11,41-13.66N,141-38.97E,168,16.005,33.5652
733,2023/11/22,12:12,41-13.30N,141-39.07E,168,16.009,33.5618
734,2023/11/22,12:13,41-12.94N,141-39.17E,168,16.009,33.56
735,2023/11/22,12:14,41-12.59N,141-39.26E,168,15.998,33.5601
736,2023/11/22,12:15,41-12.23N,141-39.36E,168,15.991,33.5578
737,2023/11/22,12:16,41-11.87N,141-39.45E,168,15.993,33.5571
738,2023/11/22,12:17,41-11.52N,141-39.54E,169,15.976,33.5562
739,2023/11/22,12:18,41-11.17N,141-39.63E,169,15.974,33.5564
740,2023/11/22,12:19,41-10.80N,141-39.72E,169,15.965,33.5541
741,2023/11/22,12:20,41-10.43N,141-39.81E,169,15.947,33.5546
742,2023/11/22,12:21,41-10.08N,141-39.90E,169,15.934,33.5586
743,2023/11/22,12:22,41-09.71N,141-39.99E,170,15.9,33.5591
744,2023/11/22,12:23,41-09.36N,141-40.07E,170,15.891,33.5599
745,2023/11/22,12:24,41-09.00N,141-40.15E,170,15.874,33.5592
746,2023/11/22,12:25,41-08.64N,141-40.24E,170,15.838,33.5569
747,2023/11/22,12:26,41-08.28N,141-40.32E,170,15.845,33.5589
748,2023/11/22,12:27,41-07.90N,141-40.41E,170,15.847,33.5606
749,2023/11/22,12:28,41-07.55N,141-40.49E,170,15.83,33.561
750,2023/11/22,12:29,41-07.19N,141-40.57E,170,15.75,33.5636
751,2023/11/22,12:30,41-06.83N,141-40.67E,167,15.319,33.5658
752,2023/11/22,12:31,41-06.49N,141-40.78E,164,15.007,33.5697
753,2023/11/22,12:32,41-06.13N,141-40.92E,163,14.973,33.5919
754,2023/11/22,12:33,41-05.80N,141-41.05E,163,14.962,33.591
755,2023/11/22,12:34,41-05.46N,141-41.19E,163,14.97,33.5957
756,2023/11/22,12:35,41-05.11N,141-41.33E,163,15.002,33.6047
757,2023/11/22,12:36,41-04.78N,141-41.46E,163,15.007,33.6095
758,2023/11/22,12:37,41-04.42N,141-41.60E,163,15.019,33.608
759,2023/11/22,12:38,41-04.10N,141-41.73E,163,15.027,33.6118
760,2023/11/22,12:39,41-03.75N,141-41.86E,164,15.021,33.6089
761,2023/11/22,12:40,41-03.40N,141-41.99E,164,15.018,33.6137
762,2023/11/22,12:41,41-03.07N,141-42.12E,163,15.028,33.6155
763,2023/11/22,12:42,41-02.73N,141-42.25E,163,15.016,33.6115
764,2023/11/22,12:43,41-02.38N,141-42.39E,164,15.012,33.6127
765,2023/11/22,12:44,41-02.05N,141-42.51E,164,15.019,33.6142
766,2023/11/22,12:45,41-01.70N,141-42.64E,164,15.028,33.6172
767,2023/11/22,12:46,41-01.36N,141-42.77E,164,15.022,33.6162
768,2023/11/22,12:47,41-01.03N,141-42.89E,164,15.02,33.6196
769,2023/11/22,12:48,41-00.68N,141-43.02E,164,15.027,33.6182
770,2023/11/22,12:49,41-00.34N,141-43.14E,164,15.035,33.6167
771,2023/11/22,12:50,40-59.99N,141-43.27E,164,15.03,33.6213
772,2023/11/22,12:51,40-59.64N,141-43.40E,164,15.042,33.6224
773,2023/11/22,12:52,40-59.31N,141-43.52E,164,15.057,33.6238
774,2023/11/22,12:53,40-58.97N,141-43.64E,165,15.076,33.6269
775,2023/11/22,12:54,40-58.62N,141-43.76E,166,15.062,33.6287
776,2023/11/22,12:55,40-58.27N,141-43.87E,166,15.068,33.6266
777,2023/11/22,12:56,40-57.92N,141-43.99E,166,15.069,33.6293
778,2023/11/22,12:57,40-57.58N,141-44.09E,166,15.054,33.63
779,2023/11/22,12:58,40-57.24N,141-44.20E,166,15.018,33.6308
780,2023/11/22,12:59,40-56.89N,141-44.32E,166,14.999,33.6323
781,2023/11/22,13:00,40-56.54N,141-44.43E,166,14.993,33.6311
782,2023/11/22,13:01,40-56.20N,141-44.53E,166,14.999,33.6311
783,2023/11/22,13:02,40-55.85N,141-44.64E,166,14.994,33.6344
784,2023/11/22,13:03,40-55.51N,141-44.75E,167,15.009,33.6335
785,2023/11/22,13:04,40-55.17N,141-44.85E,167,15.013,33.6374
786,2023/11/22,13:05,40-54.81N,141-44.95E,167,15.025,33.6334
787,2023/11/22,13:06,40-54.47N,141-45.06E,167,15.031,33.6371
788,2023/11/22,13:07,40-54.12N,141-45.16E,167,15.012,33.6315
789,2023/11/22,13:08,40-53.77N,141-45.27E,167,14.995,33.6302
790,2023/11/22,13:09,40-53.43N,141-45.37E,166,14.952,33.6347
791,2023/11/22,13:10,40-53.07N,141-45.48E,167,14.933,33.6276
792,2023/11/22,13:11,40-52.71N,141-45.59E,167,14.913,33.6285
793,2023/11/22,13:12,40-52.38N,141-45.69E,167,14.881,33.626
794,2023/11/22,13:13,40-52.03N,141-45.80E,167,14.872,33.6254
795,2023/11/22,13:14,40-51.68N,141-45.91E,166,14.865,33.6232
796,2023/11/22,13:15,40-51.32N,141-46.02E,166,14.872,33.6233
797,2023/11/22,13:16,40-50.97N,141-46.14E,166,14.867,33.6223
798,2023/11/22,13:17,40-50.61N,141-46.26E,165,14.933,33.6217
799,2023/11/22,13:18,40-50.27N,141-46.37E,166,15.075,33.6183
800,2023/11/22,13:19,40-49.93N,141-46.48E,166,15.173,33.6207
801,2023/11/22,13:20,40-49.57N,141-46.60E,165,15.293,33.6172
802,2023/11/22,13:21,40-49.21N,141-46.71E,166,15.366,33.6133
803,2023/11/22,13:22,40-48.86N,141-46.83E,165,15.435,33.6074
804,2023/11/22,13:23,40-48.50N,141-46.93E,168,15.473,33.6043
805,2023/11/22,13:24,40-48.13N,141-47.03E,169,15.517,33.6018
806,2023/11/22,13:25,40-47.78N,141-47.11E,169,15.5,33.598
807,2023/11/22,13:26,40-47.43N,141-47.19E,170,15.551,33.5956
808,2023/11/22,13:27,40-47.06N,141-47.28E,169,15.624,33.5968
809,2023/11/22,13:28,40-46.70N,141-47.37E,169,15.655,33.5942
810,2023/11/22,13:29,40-46.34N,141-47.46E,169,15.685,33.5907
811,2023/11/22,13:30,40-45.97N,141-47.55E,169,15.733,33.5895
812,2023/11/22,13:31,40-45.58N,141-47.65E,169,15.761,33.5878
813,2023/11/22,13:32,40-45.20N,141-47.75E,169,15.789,33.588
814,2023/11/22,13:33,40-44.83N,141-47.84E,168,15.802,33.5851
815,2023/11/22,13:34,40-44.48N,141-47.95E,167,15.815,33.5835
816,2023/11/22,13:35,40-44.12N,141-48.06E,167,15.81,33.5794
817,2023/11/22,13:36,40-43.74N,141-48.18E,167,15.809,33.5789
818,2023/11/22,13:37,40-43.38N,141-48.28E,167,15.816,33.577
819,2023/11/22,13:38,40-43.01N,141-48.40E,166,15.817,33.5809
820,2023/11/22,13:39,40-42.70N,141-48.50E,166,15.813,33.5778
821,2023/11/22,13:40,40-42.35N,141-48.61E,166,15.826,33.5745
822,2023/11/22,13:41,40-41.99N,141-48.72E,166,15.826,33.5753
823,2023/11/22,13:42,40-41.62N,141-48.84E,166,15.826,33.5752
824,2023/11/22,13:43,40-41.26N,141-48.95E,166,15.832,33.5774
825,2023/11/22,13:44,40-40.90N,141-49.06E,166,15.836,33.5764
826,2023/11/22,13:45,40-40.53N,141-49.18E,166,15.841,33.5781
827,2023/11/22,13:46,40-40.18N,141-49.29E,166,15.826,33.578
828,2023/11/22,13:47,40-39.82N,141-49.41E,166,15.824,33.5749
829,2023/11/22,13:48,40-39.46N,141-49.52E,166,15.823,33.5761
830,2023/11/22,13:49,40-39.10N,141-49.64E,166,15.817,33.5783
831,2023/11/22,13:50,40-38.73N,141-49.75E,166,15.813,33.5752
832,2023/11/22,13:51,40-38.36N,141-49.87E,166,15.811,33.5793
833,2023/11/22,13:52,40-38.02N,141-49.98E,166,15.813,33.5772
834,2023/11/22,13:53,40-37.65N,141-50.10E,166,15.81,33.5758
835,2023/11/22,13:54,40-37.30N,141-50.21E,166,15.805,33.5791
836,2023/11/22,13:55,40-36.92N,141-50.33E,166,15.791,33.5783
837,2023/11/22,13:56,40-36.57N,141-50.44E,166,15.784,33.5808
838,2023/11/22,13:57,40-36.20N,141-50.55E,166,15.779,33.5804
839,2023/11/22,13:58,40-35.83N,141-50.67E,166,15.774,33.5793
840,2023/11/22,13:59,40-35.48N,141-50.78E,166,15.77,33.5806
841,2023/11/22,14:00,40-35.06N,141-50.92E,166,15.765,33.5815
842,2023/11/22,14:01,40-34.70N,141-51.03E,166,15.753,33.5815
843,2023/11/22,14:02,40-34.33N,141-51.14E,166,15.761,33.5863
844,2023/11/22,14:03,40-33.96N,141-51.25E,166,15.74,33.5866
845,2023/11/22,14:04,40-33.61N,141-51.36E,167,15.723,33.5875
846,2023/11/22,14:05,40-33.24N,141-51.48E,166,15.701,33.5867
847,2023/11/22,14:06,40-32.88N,141-51.60E,165,15.663,33.588
848,2023/11/22,14:07,40-32.49N,141-51.73E,165,15.68,33.5975
849,2023/11/22,14:08,40-32.14N,141-51.84E,166,15.711,33.6038
850,2023/11/22,14:09,40-31.77N,141-51.96E,166,15.716,33.6
851,2023/11/22,14:10,40-31.42N,141-52.07E,166,15.725,33.5981
852,2023/11/22,14:11,40-31.05N,141-52.19E,165,15.727,33.5956
853,2023/11/22,14:12,40-30.68N,141-52.31E,165,15.717,33.5952
854,2023/11/22,14:13,40-30.31N,141-52.44E,165,15.721,33.5985
855,2023/11/22,14:14,40-29.95N,141-52.56E,165,15.713,33.5967
856,2023/11/22,14:15,40-29.57N,141-52.69E,165,15.722,33.5953
857,2023/11/22,14:16,40-29.22N,141-52.80E,165,15.71,33.5918
858,2023/11/22,14:17,40-28.84N,141-52.93E,166,15.708,33.5923
859,2023/11/22,14:18,40-28.47N,141-53.04E,166,15.705,33.5923
860,2023/11/22,14:19,40-28.10N,141-53.16E,166,15.708,33.5934
861,2023/11/22,14:20,40-27.75N,141-53.27E,166,15.715,33.5933
862,2023/11/22,14:21,40-27.38N,141-53.38E,166,15.705,33.5909
863,2023/11/22,14:22,40-27.01N,141-53.50E,166,15.704,33.5982
864,2023/11/22,14:23,40-26.63N,141-53.62E,166,15.711,33.5952
865,2023/11/22,14:24,40-26.33N,141-53.71E,166,15.712,33.5958
866,2023/11/22,14:25,40-25.97N,141-53.82E,166,15.725,33.5939
867,2023/11/22,14:26,40-25.54N,141-53.95E,166,15.708,33.5952
868,2023/11/22,14:27,40-25.18N,141-54.07E,166,15.718,33.5909
869,2023/11/22,14:28,40-24.80N,141-54.18E,167,15.726,33.5901
870,2023/11/22,14:29,40-24.45N,141-54.29E,166,15.723,33.5901
871,2023/11/22,14:30,40-24.08N,141-54.40E,166,15.732,33.589
872,2023/11/22,14:31,40-23.70N,141-54.52E,167,15.724,33.5891
873,2023/11/22,14:32,40-23.35N,141-54.63E,167,15.718,33.5911
874,2023/11/22,14:33,40-22.97N,141-54.74E,167,15.715,33.5916
875,2023/11/22,14:34,40-22.61N,141-54.85E,167,15.712,33.5931
876,2023/11/22,14:35,40-22.23N,141-54.96E,167,15.709,33.5944
877,2023/11/22,14:36,40-21.86N,141-55.07E,167,15.701,33.5961
878,2023/11/22,14:37,40-21.49N,141-55.18E,167,15.694,33.5975
879,2023/11/22,14:38,40-21.11N,141-55.29E,167,15.698,33.6019
880,2023/11/22,14:39,40-20.73N,141-55.40E,167,15.703,33.6018
881,2023/11/22,14:40,40-20.37N,141-55.51E,167,15.672,33.6004
882,2023/11/22,14:41,40-19.99N,141-55.62E,167,15.663,33.5961
883,2023/11/22,14:42,40-19.63N,141-55.73E,167,15.655,33.5914
884,2023/11/22,14:43,40-19.26N,141-55.84E,167,15.655,33.5971
885,2023/11/22,14:44,40-18.88N,141-55.96E,166,15.66,33.5957
886,2023/11/22,14:45,40-18.52N,141-56.08E,165,15.653,33.5932
887,2023/11/22,14:46,40-18.14N,141-56.21E,165,15.636,33.5923
888,2023/11/22,14:47,40-17.76N,141-56.34E,165,15.631,33.5858